Wind_Speed
29 29 29 29 29 29 30 30 31 31 31 32 33 33 34 34 34 34 34 34 33 34 35 35 36 36 37 38 38 37 38 38 38 38 38 38 38 38 37 37 37 37 36
30 30 30 30 30 30 31 31 32 32 32 33 33 34 33 34 34 34 34 35 35 35 35 36 36 37 38 38 38 38 38 39 39 39 39 40 40 40 40 40 39 38 38
31 31 31 31 31 31 32 32 32 32 32 32 32 33 33 33 33 34 34 34 35 35 36 37 37 38 39 39 39 39 38 38 39 40 41 41 41 41 41 42 41 41 40
32 32 32 32 32 32 32 32 31 31 31 32 32 32 33 34 33 33 34 34 35 36 37 37 37 38 39 40 40 41 41 39 38 39 40 41 42 42 42 43 42 42 42
32 32 31 32 32 32 32 32 31 31 32 32 33 33 33 33 33 34 35 36 36 36 37 37 37 38 38 40 41 41 41 41 40 39 39 39 40 42 43 43 42 42 42
32 32 32 31 32 32 33 32 32 33 33 33 33 33 33 34 34 35 36 37 37 37 38 38 38 38 38 38 39 39 40 40 40 40 40 40 39 40 42 42 41 41 41
33 33 32 32 32 32 33 33 34 34 34 34 34 35 35 35 36 36 37 37 37 38 38 39 39 39 39 39 39 39 41 41 41 41 41 41 40 40 41 42 41 41 41
33 33 33 34 34 34 34 34 35 35 35 35 36 36 36 35 36 37 37 37 37 37 37 37 38 39 39 40 40 41 41 42 43 43 43 42 43 42 42 42 41 42 42
34 34 34 35 35 35 36 36 36 37 37 37 37 37 36 36 36 36 37 37 37 37 36 37 37 39 39 40 40 39 40 42 44 45 46 45 44 44 44 42 42 42 42
36 36 36 37 36 36 37 37 38 38 38 38 38 38 37 37 37 37 37 37 37 37 37 37 38 39 39 39 39 40 41 41 42 43 44 45 45 44 44 44 43 42 42
37 37 38 38 38 39 39 39 39 39 39 39 38 38 38 37 37 37 36 36 37 37 37 38 39 39 39 40 40 41 41 41 42 43 44 45 46 46 46 47 47 46 45
37 38 38 39 39 40 40 40 40 40 40 39 38 38 37 37 37 37 36 36 36 37 37 38 39 39 39 40 41 42 42 43 43 43 45 45 46 48 48 48 48 48 47
38 39 39 40 40 40 41 41 41 40 40 39 38 38 38 38 38 38 38 38 38 38 39 39 39 40 40 41 41 42 43 43 44 45 45 45 46 47 48 48 48 48 47
39 40 40 40 41 41 41 41 41 41 40 39 39 39 39 39 39 39 39 39 40 40 40 40 41 41 42 42 42 42 43 43 44 45 46 46 46 46 46 48 49 49 49
40 40 41 41 41 41 41 42 41 41 40 40 40 41 41 40 40 40 40 41 41 41 41 41 42 42 42 43 43 43 44 44 45 45 46 47 47 47 46 46 48 48 49
41 41 41 40 41 41 41 41 41 41 41 41 42 42 41 41 41 42 42 43 43 43 43 42 43 43 44 44 44 44 44 45 45 45 45 46 47 47 47 47 47 47 48
40 40 40 40 40 41 41 40 41 41 41 42 42 42 42 42 43 43 44 44 44 44 44 43 43 44 44 45 45 45 46 45 46 46 46 46 46 47 47 47 48 48 48
39 40 40 40 41 40 40 40 40 41 41 41 42 42 42 43 44 44 44 44 45 45 45 44 45 45 46 46 46 46 46 45 45 44 45 45 45 45 45 46 47 47 47
39 40 41 41 41 41 41 41 42 42 42 42 42 43 43 44 44 45 45 45 46 46 46 46 45 46 46 46 46 46 45 44 43 43 43 44 44 44 45 45 46 46 47
41 41 42 41 41 42 42 43 43 42 43 43 43 43 44 44 45 45 45 45 46 46 46 46 46 46 46 46 45 45 44 43 43 43 43 43 44 45 46 46 46 47 48
42 42 41 41 42 42 42 43 42 43 43 44 43 44 44 44 45 45 45 46 46 46 46 46 47 46 46 45 45 44 44 44 44 44 44 44 45 46 47 48 48 49 49
42 42 42 42 42 42 42 43 43 43 44 44 44 44 45 45 45 45 46 46 47 47 47 47 47 47 46 46 46 45 45 45 44 44 44 45 46 47 48 48 49 50 51
42 42 42 43 43 43 44 44 44 44 45 45 45 46 46 46 46 46 47 47 47 47 47 47 47 47 46 46 46 46 46 45 45 45 45 45 46 47 48 49 50 50 52
42 42 42 42 43 43 44 44 45 45 45 46 46 46 46 46 46 47 47 47 47 47 47 47 47 47 47 47 46 46 46 46 46 46 46 46 47 48 49 50 50 51 51
41 41 42 42 43 43 44 45 46 46 46 46 46 46 45 46 46 46 47 47 47 47 47 47 47 47 47 47 47 47 46 46 46 47 47 47 47 47 48 50 51 51 52
42 42 43 43 43 44 45 46 46 46 46 46 46 45 46 46 46 47 47 47 47 47 46 46 46 46 46 46 46 45 46 46 46 46 47 47 47 48 47 49 50 51 51
Wind_Direction
276 277 278 279 280 281 283 285 286 286 285 285 284 283 282 281 280 280 279 279 278 278 279 279 279 279 278 276 275 274 273 272 272 272 271 271 270 270 270 270 270 269 269
276 277 277 278 279 281 283 284 286 287 286 285 285 284 282 280 280 281 280 279 278 279 279 280 280 279 278 276 275 274 273 272 271 271 270 270 270 269 269 269 269 269 268
276 276 277 278 279 281 283 284 285 286 286 285 285 285 283 282 281 282 283 282 280 279 279 279 279 279 277 276 273 272 273 272 271 271 271 270 269 269 269 269 269 269 267
276 277 278 278 280 281 282 283 285 286 287 287 287 287 286 283 282 283 283 283 282 281 280 279 279 278 276 275 272 271 271 272 271 271 271 271 270 269 269 268 268 268 267
275 277 278 279 280 281 282 284 284 285 285 286 287 287 287 286 284 282 283 283 283 283 283 281 280 278 277 275 272 270 270 271 271 270 272 272 271 269 268 267 266 267 266
276 277 278 279 281 282 283 284 284 285 286 286 287 287 287 287 285 284 284 285 284 284 284 283 281 279 278 276 273 270 269 270 270 270 270 270 271 270 268 266 265 267 268
275 277 277 279 280 281 282 282 284 285 285 287 287 287 288 288 287 287 286 285 285 284 283 282 280 279 277 277 276 273 270 270 269 269 269 269 269 270 269 267 265 265 266
275 276 277 279 280 281 282 282 283 284 285 287 287 287 288 287 288 288 287 285 285 284 283 282 281 280 278 278 277 275 273 271 271 270 270 271 270 269 268 269 269 267 265
274 276 278 280 281 281 282 283 284 284 286 286 286 287 287 287 287 287 286 285 285 284 284 283 282 282 280 279 278 277 275 273 272 271 272 274 273 271 271 270 269 266 265
276 277 279 279 280 280 281 282 283 284 284 284 286 286 286 286 286 286 286 286 285 284 284 284 284 284 282 280 278 278 277 276 275 274 272 272 272 271 270 270 269 266 264
277 279 280 281 281 281 282 282 282 283 284 284 285 285 285 285 285 285 286 285 285 284 284 285 285 285 283 280 278 277 276 276 275 274 273 272 271 270 268 268 267 266 265
278 280 281 281 281 282 282 282 282 282 282 282 282 283 283 284 284 285 285 285 285 285 285 286 286 285 284 282 280 278 276 275 275 275 274 272 271 269 268 267 265 264 264
279 280 281 281 281 281 281 282 282 282 281 281 281 281 282 282 282 283 283 284 285 285 286 287 287 285 285 284 282 281 279 278 276 275 274 273 271 269 267 266 265 263 262
279 280 280 280 280 280 281 281 282 281 280 280 280 281 281 281 281 282 283 284 284 285 285 286 287 286 285 284 284 282 280 279 277 275 274 274 273 271 269 267 266 265 263
278 280 280 280 280 280 281 280 280 280 279 279 279 280 280 281 281 282 283 284 284 285 285 285 286 286 286 285 285 284 281 279 278 277 275 274 273 272 270 269 267 266 264
280 281 281 281 281 281 280 280 279 279 279 279 279 279 279 280 280 281 283 283 284 284 285 285 285 285 286 285 285 285 283 279 278 278 276 273 272 272 271 270 268 267 266
281 281 281 282 281 281 281 280 280 280 280 280 280 279 279 280 281 282 283 283 283 284 285 285 286 286 286 286 286 286 285 283 280 277 276 274 273 272 270 269 268 267 266
281 281 282 282 282 282 281 280 280 281 281 281 280 280 280 281 282 282 283 283 283 284 285 285 286 286 287 287 287 287 286 285 283 279 277 275 273 271 270 270 269 267 266
281 281 282 282 282 281 281 281 282 282 281 281 281 281 281 282 282 282 283 283 283 284 284 285 286 287 287 287 287 287 286 285 283 280 278 277 275 272 271 271 270 268 267
282 282 282 281 281 281 282 282 283 282 282 282 282 282 282 282 282 283 283 283 284 284 285 286 286 287 287 287 286 285 284 284 282 281 280 278 276 275 273 272 271 270 269
282 282 281 281 281 282 282 283 283 283 283 283 283 283 282 282 283 283 283 284 284 285 285 286 286 286 286 286 285 284 283 282 282 281 280 279 277 277 275 274 273 271 269
282 282 282 282 282 282 282 283 283 284 284 283 283 282 282 281 282 283 283 284 285 285 285 285 286 286 285 284 284 284 283 282 281 281 280 280 279 278 277 276 275 273 272
282 282 282 283 282 283 283 283 284 284 284 283 283 282 281 281 281 282 283 284 284 284 284 285 285 285 285 284 283 283 283 283 282 282 282 282 281 280 279 279 278 276 274
283 283 283 283 283 284 284 284 284 284 284 283 283 283 282 281 281 282 283 284 284 285 285 285 286 286 285 284 284 284 284 284 284 283 283 283 283 283 282 281 280 278 276
283 283 284 284 284 285 285 285 285 284 284 283 283 282 282 282 282 283 283 284 285 285 285 285 286 286 286 285 285 285 285 284 284 284 283 283 283 283 283 283 282 281 279
284 284 284 285 285 285 286 286 286 285 284 283 283 282 282 282 283 284 284 284 285 285 285 285 286 286 286 286 285 285 284 284 284 284 284 285 285 284 283 283 283 282 281
Height
5829 5828 5827 5826 5825 5824 5823 5822 5820 5818 5817 5815 5813 5812 5811 5810 5809 5808 5807 5806 5805 5804 5803 5803 5802 5801 5800 5800 5799 5799 5798 5798 5798 5797 5797 5797 5797 5797 5797 5798 5798 5798 5798
5822 5822 5821 5820 5819 5818 5817 5815 5813 5812 5810 5808 5806 5805 5803 5802 5801 5800 5799 5798 5797 5796 5795 5794 5794 5793 5792 5791 5790 5790 5789 5789 5789 5788 5788 5788 5788 5788 5789 5789 5789 5789 5790
5816 5815 5814 5814 5812 5811 5810 5808 5806 5805 5803 5801 5799 5797 5796 5794 5793 5792 5791 5790 5788 5788 5787 5786 5785 5784 5783 5782 5781 5780 5780 5779 5779 5779 5779 5778 5778 5779 5779 5779 5780 5780 5780
5809 5808 5808 5807 5805 5804 5803 5801 5799 5798 5796 5794 5792 5791 5789 5787 5786 5784 5783 5781 5780 5779 5778 5777 5776 5775 5774 5772 5772 5771 5770 5770 5769 5769 5768 5768 5769 5769 5769 5769 5770 5770 5770
5801 5801 5800 5799 5798 5797 5796 5794 5792 5791 5789 5787 5785 5783 5781 5780 5778 5777 5775 5773 5772 5770 5769 5768 5767 5765 5764 5763 5762 5761 5761 5760 5760 5759 5759 5758 5758 5758 5759 5759 5759 5759 5760
5794 5794 5793 5792 5791 5790 5788 5787 5785 5784 5782 5780 5778 5776 5774 5772 5770 5768 5767 5765 5763 5762 5760 5759 5757 5756 5754 5753 5752 5751 5751 5750 5750 5749 5749 5749 5748 5748 5748 5749 5749 5749 5750
5787 5786 5785 5784 5783 5782 5781 5779 5778 5776 5774 5772 5770 5768 5766 5764 5762 5760 5758 5756 5754 5752 5751 5749 5747 5746 5744 5743 5742 5741 5741 5740 5740 5739 5739 5739 5738 5738 5738 5739 5739 5739 5739
5779 5778 5777 5776 5775 5774 5773 5771 5769 5768 5766 5764 5762 5760 5758 5756 5753 5751 5748 5747 5745 5743 5741 5739 5738 5736 5734 5733 5732 5731 5730 5730 5729 5729 5728 5728 5728 5728 5728 5728 5728 5729 5729
5771 5770 5769 5768 5767 5766 5764 5763 5761 5759 5757 5755 5753 5751 5749 5747 5745 5742 5739 5737 5735 5734 5732 5730 5728 5726 5724 5723 5722 5721 5720 5719 5718 5718 5718 5717 5717 5717 5717 5717 5717 5718 5718
5763 5762 5761 5760 5758 5757 5755 5754 5752 5750 5748 5746 5744 5742 5740 5738 5736 5734 5731 5728 5726 5724 5722 5720 5718 5716 5714 5713 5712 5711 5710 5709 5708 5707 5707 5706 5706 5705 5705 5705 5706 5706 5706
5754 5753 5752 5750 5749 5748 5746 5744 5743 5740 5739 5737 5735 5732 5730 5728 5726 5724 5722 5720 5717 5715 5713 5711 5709 5706 5704 5703 5701 5700 5699 5698 5697 5696 5695 5694 5694 5694 5694 5694 5694 5694 5694
5745 5744 5742 5741 5739 5738 5736 5734 5732 5730 5729 5727 5725 5723 5721 5719 5717 5714 5712 5710 5708 5706 5704 5701 5699 5696 5694 5692 5691 5689 5688 5687 5685 5684 5683 5682 5681 5681 5681 5681 5681 5682 5682
5736 5734 5733 5731 5729 5728 5726 5724 5722 5720 5718 5716 5715 5713 5711 5709 5707 5705 5703 5700 5698 5696 5694 5691 5688 5686 5684 5682 5680 5678 5676 5675 5673 5672 5671 5669 5668 5668 5667 5668 5668 5668 5669
5726 5724 5722 5721 5719 5717 5715 5713 5711 5709 5708 5706 5704 5703 5701 5699 5697 5695 5693 5690 5688 5686 5683 5681 5678 5675 5672 5670 5668 5666 5664 5662 5660 5659 5658 5656 5655 5654 5654 5654 5654 5655 5655
5716 5714 5712 5710 5708 5706 5704 5702 5700 5699 5697 5695 5694 5692 5690 5688 5686 5684 5682 5680 5678 5675 5673 5670 5667 5664 5661 5658 5656 5654 5652 5650 5647 5646 5644 5643 5642 5641 5641 5641 5641 5641 5642
5705 5703 5701 5699 5697 5695 5693 5691 5689 5688 5686 5684 5683 5681 5679 5677 5675 5673 5671 5668 5666 5664 5661 5658 5655 5652 5649 5646 5644 5641 5639 5637 5634 5632 5631 5630 5629 5628 5627 5627 5627 5627 5628
5694 5692 5690 5688 5686 5684 5682 5680 5678 5677 5675 5673 5671 5669 5668 5666 5664 5661 5659 5656 5654 5651 5649 5646 5643 5641 5637 5634 5631 5628 5626 5623 5621 5619 5617 5616 5615 5614 5613 5613 5613 5613 5614
5684 5682 5680 5678 5675 5673 5671 5669 5667 5665 5663 5662 5660 5658 5656 5654 5652 5649 5647 5644 5641 5639 5636 5634 5631 5628 5625 5622 5619 5615 5612 5610 5607 5605 5603 5602 5601 5600 5599 5599 5599 5599 5599
5674 5671 5669 5667 5664 5662 5660 5658 5656 5654 5652 5650 5648 5646 5644 5642 5640 5637 5634 5632 5629 5626 5623 5621 5618 5615 5612 5609 5606 5602 5599 5596 5594 5592 5590 5588 5587 5586 5585 5585 5585 5584 5584
5663 5660 5658 5656 5653 5651 5649 5647 5644 5642 5640 5638 5636 5634 5632 5629 5627 5625 5622 5619 5616 5613 5610 5608 5605 5602 5599 5595 5593 5590 5587 5584 5581 5579 5577 5575 5574 5572 5572 5571 5571 5570 5570
5651 5649 5646 5644 5642 5640 5637 5635 5633 5631 5628 5626 5624 5622 5619 5617 5614 5612 5609 5606 5603 5600 5597 5595 5592 5588 5585 5582 5579 5576 5574 5571 5568 5566 5563 5561 5560 5559 5558 5557 5556 5556 5555
5640 5637 5635 5632 5630 5628 5625 5623 5621 5619 5616 5614 5612 5609 5607 5604 5601 5598 5596 5593 5590 5587 5584 5581 5578 5575 5572 5569 5566 5563 5560 5558 5555 5553 5550 5548 5546 5544 5543 5542 5541 5540 5539
5628 5626 5623 5620 5618 5616 5613 5611 5608 5606 5604 5601 5599 5596 5594 5591 5588 5585 5582 5579 5577 5573 5571 5568 5565 5562 5559 5555 5553 5550 5547 5544 5541 5539 5537 5534 5531 5530 5528 5526 5525 5524 5523
5616 5614 5611 5608 5606 5603 5601 5598 5596 5593 5591 5588 5585 5583 5580 5577 5574 5572 5569 5566 5563 5560 5557 5554 5551 5548 5545 5541 5539 5536 5533 5530 5528 5525 5523 5521 5518 5515 5513 5510 5508 5507 5505
5604 5602 5599 5596 5594 5591 5588 5585 5583 5580 5578 5575 5572 5569 5566 5564 5561 5558 5555 5553 5549 5546 5543 5540 5537 5534 5531 5528 5525 5522 5519 5517 5514 5511 5508 5506 5504 5501 5498 5495 5492 5489 5487
5592 5589 5587 5584 5581 5578 5575 5572 5569 5567 5564 5561 5558 5555 5553 5550 5547 5544 5541 5538 5535 5532 5529 5526 5523 5520 5517 5514 5511 5508 5505 5503 5500 5497 5494 5492 5489 5486 5485 5480 5476 5472 5470